|
Cosmos 2219 Rocket - Orbit
|
Whitehorse;
21:04:28
| Home | Info | Passes |
|
View from above orbital plane
|
View from above satellite
|
Ground track
|
The orbit data is extracted from the following two-line orbital elements,
1 22220U 92076B 13145.49363118 .00000336 00000-0 19369-3 0 445
2 22220 071.0016 301.9677 0012768 004.1405 051.5115 14.16257282 60693
| Epoch (UTC): | 25 May 2013 11:50:49 |
| Eccentricity: | 0.0012768 |
| inclination: | 71.0016° |
| perigee height: | 829 km |
| apogee height: | 847 km |
| right ascension of ascending node: | 301.9677° |
| argument of perigee: | 4.1405° |
| revolutions per day: | 14.16257282 |
| mean anomaly at epoch: | 51.5115° |
| orbit number at epoch: | 6069 |
The dashed part of the orbit path shows where the satellite is in the earth's shadow,
|
|